Weather History for KVYS - December, 2010

Change the Weather History Date:

Friday, December 24, 2010

  Actual Average Record
Temperature  
Mean Temperature 26 °F -  
Max Temperature 30 °F 31 °F 60 °F (1982)
Min Temperature 22 °F 17 °F -19 °F (1983)
Degree Days  
Heating Degree Days 39    
Moisture  
Dew Point 25 °F    
Average Humidity 90    
Maximum Humidity 94    
Minimum Humidity 86    
Precipitation  
Precipitation 0.12 in - - ()
Sea Level Pressure  
Sea Level Pressure 30.34 in    
Wind  
Wind Speed 4 mph (ENE)    
Max Wind Speed 8 mph    
Max Gust Speed -    
Visibility 3 miles    
Events Rain , Snow    
Averages and records for this station are not official NWS values.
T = Trace of Precipitation, MM = Missing Value Source: NWS Daily Summary

Daily Weather History Graph

Daily Weather History Graph

Search for Another Location

Airport or City:

Trip Planner

Search our weather history database for the weather conditions in past years. The results will help you decide how hot, cold, wet, or windy it might be!

Date:

Astronomy

Dec. 24, 2010 Rise Set
Actual Time 7:20 AM CST 4:32 PM CST
Civil Twilight 6:49 AM CST 5:03 PM CST
Nautical Twilight 6:14 AM CST 5:38 PM CST
Astronomical Twilight 5:40 AM CST 6:11 PM CST
Moon 8:41 PM CST (12/24) 9:38 AM CST (12/24)
Length of Visible Light 10h 14m
Length of Day
9h 11m
Waning Gibbous, 86% of the Moon is Illuminated
Dec 24
Waning Gibbous
Dec 27
Last Quarter
Jan 4
New
Jan 12
First Quarter
Jan 19
Full

Hourly Weather History & Observations

Time (CST) Temp. Windchill Dew Point Humidity Pressure Visibility Wind Dir Wind Speed Gust Speed Precip Events Conditions
12:05 AM 22.6 °F 15.3 °F 19.8 °F 89% 30.41 in 7.0 mi NE 5.8 mph - N/A   Overcast
12:25 AM 23.0 °F 17.0 °F 19.4 °F 86% 30.41 in 7.0 mi ENE 4.6 mph - N/A   Overcast
12:45 AM 23.0 °F 17.0 °F 19.4 °F 86% 30.41 in 7.0 mi ENE 4.6 mph - N/A   Overcast
1:05 AM 23.5 °F 17.6 °F 20.3 °F 87% 30.41 in 7.0 mi ENE 4.6 mph - N/A   Overcast
1:25 AM 23.9 °F - 20.5 °F 87% 30.41 in 7.0 mi Calm Calm - N/A   Overcast
1:45 AM 23.9 °F 18.0 °F 20.7 °F 87% 30.41 in 7.0 mi ENE 4.6 mph - N/A   Overcast
2:05 AM 24.8 °F 19.1 °F 21.2 °F 86% 30.40 in 7.0 mi ENE 4.6 mph - N/A   Overcast
2:25 AM 23.9 °F 15.8 °F 20.7 °F 87% 30.39 in 7.0 mi ENE 6.9 mph - N/A   Overcast
2:45 AM 23.9 °F 16.8 °F 20.8 °F 88% 30.40 in 7.0 mi NE 5.8 mph - N/A   Overcast
3:06 AM 23.9 °F 15.8 °F 21.0 °F 89% 30.39 in 5.0 mi NE 6.9 mph - N/A   Overcast
3:25 AM 23.9 °F 16.8 °F 21.0 °F 89% 30.39 in 5.0 mi NE 5.8 mph - N/A   Overcast
3:45 AM 24.3 °F 19.9 °F 21.2 °F 88% 30.38 in 5.0 mi ENE 3.5 mph - N/A   Overcast
4:05 AM 24.4 °F - 21.2 °F 87% 30.38 in 5.0 mi Calm Calm - N/A   Overcast
4:25 AM 24.8 °F 20.5 °F 21.7 °F 88% 30.38 in 5.0 mi East 3.5 mph - N/A   Overcast
4:45 AM 25.2 °F 19.5 °F 21.9 °F 87% 30.39 in 5.0 mi ENE 4.6 mph - N/A   Overcast
5:05 AM 25.3 °F 18.5 °F 22.1 °F 87% 30.38 in 5.0 mi ENE 5.8 mph - N/A   Overcast
5:25 AM 25.5 °F 18.7 °F 22.1 °F 87% 30.38 in 5.0 mi ENE 5.8 mph - N/A   Overcast
5:46 AM 25.7 °F 20.1 °F 22.3 °F 87% 30.39 in 5.0 mi East 4.6 mph - N/A   Overcast
6:05 AM 25.9 °F 21.7 °F 22.6 °F 88% 30.38 in 5.0 mi East 3.5 mph - N/A   Overcast
6:25 AM 26.2 °F 20.7 °F 22.8 °F 87% 30.38 in 5.0 mi East 4.6 mph - N/A   Overcast
6:45 AM 26.2 °F 18.6 °F 22.8 °F 87% 30.38 in 4.0 mi East 6.9 mph - N/A Snow Light Snow
7:05 AM 26.2 °F 20.7 °F 23.0 °F 88% 30.37 in 2.5 mi East 4.6 mph - N/A Snow Light Snow
7:25 AM 26.2 °F 20.7 °F 23.4 °F 89% 30.37 in 1.8 mi East 4.6 mph - N/A Snow Light Snow
7:45 AM 26.2 °F 18.6 °F 23.7 °F 90% 30.36 in 1.0 mi East 6.9 mph - N/A Snow Light Snow
8:05 AM 26.4 °F 20.9 °F 23.9 °F 90% 30.36 in 1.2 mi East 4.6 mph - N/A Snow Light Snow
8:25 AM 27.0 °F 21.6 °F 24.8 °F 92% 30.36 in 1.0 mi East 4.6 mph - N/A Snow Light Snow
8:45 AM 27.1 °F 19.7 °F 24.8 °F 91% 30.35 in 1.0 mi East 6.9 mph - N/A Snow Light Snow
9:05 AM 27.5 °F 23.6 °F 25.5 °F 92% 30.36 in 1.2 mi East 3.5 mph - N/A Snow Light Snow
9:25 AM 28.0 °F 24.2 °F 25.9 °F 92% 30.36 in 1.0 mi East 3.5 mph - 0.01 in Snow Light Snow
9:45 AM 28.2 °F 24.4 °F 26.1 °F 92% 30.36 in 0.8 mi East 3.5 mph - 0.02 in Snow Light Snow
10:05 AM 28.4 °F 24.6 °F 26.2 °F 92% 30.36 in 0.8 mi East 3.5 mph - N/A Snow Light Snow
10:25 AM 28.8 °F - 26.4 °F 91% 30.36 in 1.0 mi Calm Calm - 0.01 in Snow Light Snow
10:45 AM 28.4 °F - 26.6 °F 93% 30.35 in 0.8 mi Calm Calm - N/A Snow Light Snow
11:05 AM 29.5 °F - 27.1 °F 91% 30.34 in 0.8 mi Calm Calm - 0.01 in   Overcast
11:25 AM 29.1 °F - 26.6 °F 90% 30.33 in 0.8 mi Calm Calm - 0.01 in Rain Light Freezing Rain
11:45 AM 28.9 °F - 26.6 °F 91% 30.32 in 1.0 mi Calm Calm - 0.02 in   Overcast
12:05 PM 29.7 °F - 27.5 °F 92% 30.31 in 0.8 mi Calm Calm - N/A   Overcast
12:25 PM 29.8 °F - 27.5 °F 91% 30.30 in 0.8 mi Calm Calm - 0.01 in   Overcast
12:46 PM 30.0 °F - 27.5 °F 90% 30.30 in 0.8 mi Calm Calm - 0.02 in   Overcast
1:05 PM 30.2 °F - 27.9 °F 91% 30.30 in 0.8 mi Calm Calm - N/A   Overcast
1:25 PM 30.0 °F - 27.5 °F 90% 30.29 in 0.8 mi Calm Calm - 0.01 in Snow Light Snow
1:45 PM 30.7 °F - 28.2 °F 90% 30.28 in 1.5 mi Calm Calm - 0.01 in Snow Light Snow
2:05 PM 30.0 °F - 27.5 °F 90% 30.28 in 1.0 mi Calm Calm - 0.01 in Snow Light Snow
2:25 PM 30.2 °F 24.3 °F 28.0 °F 92% 30.27 in 1.2 mi ENE 5.8 mph - 0.01 in Snow Light Snow
2:45 PM 29.8 °F 23.9 °F 27.5 °F 91% 30.27 in 1.0 mi ENE 5.8 mph - 0.01 in Snow Light Snow
3:05 PM 29.7 °F 23.7 °F 27.5 °F 92% 30.26 in 1.0 mi ENE 5.8 mph - N/A Snow Light Snow
3:26 PM 29.5 °F 23.4 °F 27.5 °F 92% 30.26 in 0.5 mi ENE 5.8 mph - N/A Snow Light Snow
3:45 PM 29.3 °F 23.2 °F 27.5 °F 93% 30.26 in 0.8 mi NE 5.8 mph - 0.01 in Snow Light Snow
4:05 PM 29.3 °F 22.3 °F 27.5 °F 93% 30.26 in 0.8 mi NE 6.9 mph - N/A Snow Light Snow
4:25 PM 29.3 °F 21.5 °F 27.5 °F 93% 30.26 in 0.8 mi NE 8.1 mph - 0.01 in Snow Light Snow
4:45 PM 29.5 °F 22.5 °F 27.7 °F 93% 30.27 in 0.8 mi NE 6.9 mph - 0.01 in Snow Light Snow
5:05 PM 29.3 °F 22.3 °F 27.5 °F 93% 30.27 in 1.5 mi NE 6.9 mph - N/A   Overcast
5:25 PM 29.3 °F 22.3 °F 27.9 °F 94% 30.27 in 1.5 mi NE 6.9 mph - N/A Snow Light Snow
5:45 PM 29.3 °F 21.5 °F 27.9 °F 94% 30.27 in 1.8 mi NE 8.1 mph - 0.01 in Snow Light Snow
6:05 PM 29.3 °F 21.5 °F 27.9 °F 94% 30.26 in 1.5 mi NE 8.1 mph - N/A Snow Light Snow
6:25 PM 29.7 °F 22.0 °F 28.0 °F 94% 30.26 in 1.8 mi NE 8.1 mph - N/A Snow Light Snow
6:45 PM 29.8 °F 22.2 °F 28.2 °F 94% 30.25 in 2.0 mi NE 8.1 mph - N/A Snow Light Snow
7:05 PM 29.8 °F 21.5 °F 28.2 °F 94% 30.25 in 2.0 mi NE 9.2 mph - N/A Snow Light Snow
7:25 PM 29.7 °F 22.0 °F 27.9 °F 93% 30.25 in 3.0 mi NE 8.1 mph - N/A Snow Light Snow
7:45 PM 29.7 °F 22.0 °F 28.0 °F 94% 30.25 in 3.0 mi NE 8.1 mph - N/A Snow Light Snow
8:05 PM 29.3 °F 22.3 °F 27.5 °F 93% 30.25 in 2.5 mi NE 6.9 mph - N/A Snow Light Snow
8:25 PM 29.3 °F 23.2 °F 27.9 °F 94% 30.25 in 2.5 mi NNE 5.8 mph - N/A Snow Light Snow
8:45 PM 29.3 °F 23.2 °F 27.5 °F 93% 30.24 in 2.5 mi NNE 5.8 mph - N/A Snow Light Snow
9:05 PM 29.1 °F 23.0 °F 27.5 °F 94% 30.24 in 2.5 mi North 5.8 mph - N/A Rain Light Freezing Rain
9:25 PM 29.1 °F 23.0 °F 27.5 °F 94% 30.24 in 1.8 mi North 5.8 mph - 0.01 in   Overcast
9:45 PM 29.1 °F 23.0 °F 27.5 °F 94% 30.24 in 1.8 mi North 5.8 mph - 0.01 in   Overcast
10:05 PM 29.3 °F 22.3 °F 27.9 °F 94% 30.24 in 2.0 mi North 6.9 mph - N/A   Overcast
10:25 PM 29.3 °F 22.3 °F 27.9 °F 94% 30.24 in 2.0 mi North 6.9 mph - N/A   Overcast
10:45 PM 30.2 °F 23.4 °F 28.4 °F 93% 30.24 in 2.0 mi North 6.9 mph - N/A   Overcast
11:05 PM 29.5 °F 23.4 °F 27.7 °F 93% 30.24 in 2.5 mi North 5.8 mph - N/A Rain Light Freezing Rain
11:25 PM 29.3 °F 22.3 °F 27.5 °F 93% 30.24 in 3.0 mi North 6.9 mph - N/A Rain Light Freezing Rain
11:45 PM 29.3 °F 22.3 °F 27.5 °F 93% 30.23 in 3.0 mi North 6.9 mph - N/A Rain Light Freezing Rain